{"data":{"norad_id":64424,"epoch":"2026-05-25T00:08:13.953984Z","epoch_age_seconds":74315,"freshness":"FRESH","line1":"1 64424U 25129N   26145.00571706  .00008698  00000+0  73551-3 0  9997","line2":"2 64424  70.0030 242.2357 0003431 265.9539  94.1227 14.98348297 52712","mean_motion":14.98348297,"eccentricity":0.0003431,"inclination_deg":70.003,"raan_deg":242.2357,"arg_perigee_deg":265.9539,"mean_anomaly_deg":94.1227,"bstar":0.00073551,"rev_number":5271,"period_min":96.105825520219,"perigee_km":569.61471778922,"apogee_km":574.38390132484,"semimajor_km":6950.136309557,"source":"CELESTRAK","updated_at":"2026-05-25T13:38:20.441251Z"}}